VIA003 SVMI-SKBQ

Flight info

Callsign VIA003
Flight time 1h 33m
Altitude 36000
Route MARES1 MARES A315 ATONO G427 KOTUL DCT IMBAT UP671 UTKIV UQ125 MAKBU A552 VUMBA VUMBA1A
Aircraft MD11/H-SDE1E2E3FGHIJ2J3J4J5M1RWXY/LB1D1

Departure

Time 2026-04-25 21:27
Airport Maiquetía Simón Bolívar International Airport (SVMI)

Arrival

Time 2026-04-25 23:00
Airport Ernesto Cortissoz International Airport (SKBQ)
Time Latitude Longitude Altitude Speed Heading
2026-04-25 21:12 10.60108 -67.00614 309 ft 0 kts 358°
2026-04-25 21:17 10.60101 -67.00614 309 ft 2 kts 358°
2026-04-25 21:17 10.60086 -67.00613 309 ft 2 kts 358°
2026-04-25 21:18 10.60071 -67.00613 309 ft 2 kts 358°
2026-04-25 21:18 10.60056 -67.00613 309 ft 2 kts 358°
2026-04-25 21:18 10.60041 -67.00612 309 ft 2 kts 358°
2026-04-25 21:18 10.60026 -67.00611 309 ft 2 kts 358°
2026-04-25 21:19 10.60011 -67.00612 309 ft 2 kts 19°
2026-04-25 21:19 10.59999 -67.00620 309 ft 2 kts 50°
2026-04-25 21:19 10.59991 -67.00633 309 ft 2 kts 79°
2026-04-25 21:19 10.59991 -67.00639 309 ft 1 kts 89°
2026-04-25 21:20 10.59991 -67.00642 309 ft 0 kts 88°
2026-04-25 21:22 10.59991 -67.00641 309 ft 0 kts 88°
2026-04-25 21:22 10.59991 -67.00639 309 ft 0 kts 88°
2026-04-25 21:23 10.59991 -67.00622 310 ft 3 kts 88°
2026-04-25 21:23 10.59992 -67.00594 311 ft 4 kts 88°
2026-04-25 21:23 10.59994 -67.00549 311 ft 7 kts 88°
2026-04-25 21:23 10.59996 -67.00489 311 ft 10 kts 89°
2026-04-25 21:24 10.59998 -67.00410 312 ft 12 kts 88°
2026-04-25 21:24 10.60006 -67.00311 312 ft 15 kts 62°
2026-04-25 21:24 10.60095 -67.00273 310 ft 12 kts 38°
2026-04-25 21:24 10.60115 -67.00172 309 ft 16 kts 88°
2026-04-25 21:25 10.60116 -67.00038 307 ft 20 kts 89°
2026-04-25 21:25 10.60125 -66.99882 302 ft 18 kts 85°
2026-04-25 21:25 10.60136 -66.99747 297 ft 18 kts 86°
2026-04-25 21:25 10.60081 -66.99672 297 ft 12 kts 173°
2026-04-25 21:26 10.60007 -66.99668 300 ft 9 kts 177°
2026-04-25 21:26 10.59942 -66.99665 302 ft 9 kts 178°
2026-04-25 21:26 10.59909 -66.99640 302 ft 7 kts 99°
2026-04-25 21:26 10.59915 -66.99583 300 ft 13 kts 76°
2026-04-25 21:27 10.60001 -66.99241 281 ft 91 kts 75°
2026-04-25 21:27 10.60218 -66.98350 232 ft 163 kts 76°
2026-04-25 21:27 10.60491 -66.97150 649 ft 177 kts 78°
2026-04-25 21:27 10.60726 -66.95959 1311 ft 172 kts 78°
2026-04-25 21:28 10.60954 -66.94778 1899 ft 173 kts 78°
2026-04-25 21:28 10.61177 -66.93593 2463 ft 174 kts 79°
2026-04-25 21:28 10.61460 -66.92376 2896 ft 185 kts 65°
2026-04-25 21:28 10.62361 -66.91379 3167 ft 203 kts 28°
2026-04-25 21:29 10.63811 -66.91074 3402 ft 227 kts 355°
2026-04-25 21:29 10.65337 -66.91682 3784 ft 244 kts 323°
2026-04-25 21:29 10.66437 -66.93038 4248 ft 257 kts 300°
2026-04-25 21:29 10.67172 -66.94754 4656 ft 272 kts 289°
2026-04-25 21:30 10.67713 -66.96614 5163 ft 282 kts 284°
2026-04-25 21:30 10.68175 -66.98580 5981 ft 288 kts 282°
2026-04-25 21:30 10.68589 -67.00557 6972 ft 288 kts 281°
2026-04-25 21:30 10.68855 -67.01886 7548 ft 291 kts 281°
2026-04-25 21:31 10.69404 -67.04576 8580 ft 298 kts 288°
2026-04-25 21:31 10.70303 -67.06453 9429 ft 298 kts 303°
2026-04-25 21:31 10.71487 -67.08197 10172 ft 303 kts 306°
2026-04-25 21:31 10.72675 -67.09930 11216 ft 295 kts 304°
2026-04-25 21:32 10.73817 -67.11731 11544 ft 317 kts 301°
2026-04-25 21:32 10.74951 -67.13728 12072 ft 334 kts 299°
2026-04-25 21:32 10.76098 -67.15882 12508 ft 358 kts 298°
2026-04-25 21:32 10.77310 -67.18208 12738 ft 387 kts 298°
2026-04-25 21:33 10.78677 -67.20682 13202 ft 408 kts 302°
2026-04-25 21:33 10.80244 -67.23099 14040 ft 417 kts 306°
2026-04-25 21:33 10.81975 -67.25474 14933 ft 423 kts 308°
2026-04-25 21:33 10.83765 -67.27837 15874 ft 428 kts 308°
2026-04-25 21:34 10.85572 -67.30241 16806 ft 432 kts 308°
2026-04-25 21:34 10.87425 -67.32737 17383 ft 445 kts 307°
2026-04-25 21:34 10.89298 -67.35270 18153 ft 452 kts 307°
2026-04-25 21:34 10.91013 -67.37951 18918 ft 458 kts 299°
2026-04-25 21:35 10.92320 -67.40891 19709 ft 463 kts 289°
2026-04-25 21:35 10.93150 -67.44067 20485 ft 468 kts 280°
2026-04-25 21:35 10.93448 -67.47360 21281 ft 472 kts 271°
2026-04-25 21:35 10.93208 -67.50707 22028 ft 476 kts 261°
2026-04-25 21:36 10.92432 -67.53967 22739 ft 481 kts 252°
2026-04-25 21:36 10.91120 -67.57111 23442 ft 486 kts 242°
2026-04-25 21:36 10.89310 -67.60008 24180 ft 489 kts 233°
2026-04-25 21:36 10.87123 -67.62708 24878 ft 493 kts 229°
2026-04-25 21:37 10.84818 -67.65295 25572 ft 497 kts 227°
2026-04-25 21:37 10.83266 -67.67011 26039 ft 499 kts 227°
2026-04-25 21:37 10.80136 -67.70534 27015 ft 502 kts 229°
2026-04-25 21:37 10.77845 -67.73195 27945 ft 500 kts 229°
2026-04-25 21:38 10.75589 -67.75864 28887 ft 497 kts 229°
2026-04-25 21:38 10.73386 -67.78545 29906 ft 493 kts 230°
2026-04-25 21:38 10.71225 -67.81198 30820 ft 490 kts 229°
2026-04-25 21:38 10.69118 -67.83881 31638 ft 489 kts 233°
2026-04-25 21:39 10.67347 -67.86849 32447 ft 489 kts 242°
2026-04-25 21:39 10.66049 -67.90039 33197 ft 491 kts 250°
2026-04-25 21:39 10.65230 -67.93448 34026 ft 491 kts 258°
2026-04-25 21:39 10.64915 -67.96889 34806 ft 491 kts 267°
2026-04-25 21:40 10.65083 -68.00364 35533 ft 490 kts 273°
2026-04-25 21:40 10.65475 -68.03783 35813 ft 492 kts 274°
2026-04-25 21:40 10.66021 -68.10680 35806 ft 484 kts 269°
2026-04-25 21:41 10.66209 -68.17448 35829 ft 481 kts 268°
2026-04-25 21:41 10.66326 -68.24262 35838 ft 482 kts 268°
2026-04-25 21:42 10.66498 -68.31056 35842 ft 482 kts 268°
2026-04-25 21:42 10.66639 -68.37892 35847 ft 482 kts 268°
2026-04-25 21:43 10.66810 -68.44672 35849 ft 482 kts 269°
2026-04-25 21:43 10.66957 -68.51459 35855 ft 482 kts 268°
2026-04-25 21:44 10.67127 -68.58287 35861 ft 482 kts 269°
2026-04-25 21:45 10.67361 -68.68476 35874 ft 481 kts 269°
2026-04-25 21:45 10.67534 -68.75217 35882 ft 481 kts 268°
2026-04-25 21:46 10.67629 -68.81995 35894 ft 480 kts 268°
2026-04-25 21:46 10.67681 -68.88785 35893 ft 480 kts 268°
2026-04-25 21:47 10.67768 -68.95549 35891 ft 480 kts 268°
2026-04-25 21:47 10.67847 -69.02354 35890 ft 480 kts 268°
2026-04-25 21:48 10.67928 -69.09139 35890 ft 481 kts 268°
2026-04-25 21:48 10.68013 -69.15952 35893 ft 481 kts 268°
2026-04-25 21:49 10.68099 -69.22732 35903 ft 480 kts 268°
2026-04-25 21:49 10.68183 -69.29497 35904 ft 480 kts 268°
2026-04-25 21:50 10.68274 -69.36290 35919 ft 481 kts 268°
2026-04-25 21:50 10.68361 -69.43035 35923 ft 481 kts 268°
2026-04-25 21:51 10.68455 -69.49839 35933 ft 480 kts 268°
2026-04-25 21:51 10.68545 -69.56608 35939 ft 480 kts 268°
2026-04-25 21:52 10.68642 -69.63413 35952 ft 481 kts 268°
2026-04-25 21:52 10.68700 -69.70197 35961 ft 481 kts 267°
2026-04-25 21:53 10.68791 -69.76948 35970 ft 481 kts 267°
2026-04-25 21:53 10.68908 -69.83760 35975 ft 481 kts 268°
2026-04-25 21:54 10.69067 -69.90529 35975 ft 480 kts 268°
2026-04-25 21:54 10.69211 -69.97317 35968 ft 480 kts 268°
2026-04-25 21:55 10.69373 -70.04080 35958 ft 480 kts 268°
2026-04-25 21:55 10.69522 -70.10848 35957 ft 480 kts 268°
2026-04-25 21:56 10.69689 -70.17635 35956 ft 482 kts 268°
2026-04-25 21:56 10.69842 -70.24426 35946 ft 481 kts 268°
2026-04-25 21:57 10.70012 -70.31248 35947 ft 481 kts 268°
2026-04-25 21:57 10.70158 -70.38009 35943 ft 480 kts 267°
2026-04-25 21:58 10.70236 -70.44781 35943 ft 480 kts 267°
2026-04-25 21:58 10.70361 -70.51542 35941 ft 480 kts 268°
2026-04-25 21:59 10.70471 -70.58354 35937 ft 480 kts 267°
2026-04-25 21:59 10.70599 -70.65131 35927 ft 481 kts 267°
2026-04-25 22:00 10.70779 -70.75299 35915 ft 481 kts 267°
2026-04-25 22:00 10.70911 -70.82079 35900 ft 480 kts 267°
2026-04-25 22:01 10.71030 -70.88826 35891 ft 480 kts 267°
2026-04-25 22:01 10.71133 -70.94473 35876 ft 480 kts 267°
2026-04-25 22:02 10.71291 -71.02383 35855 ft 480 kts 268°
2026-04-25 22:02 10.71446 -71.09135 35851 ft 479 kts 267°
2026-04-25 22:03 10.71600 -71.15932 35851 ft 480 kts 268°
2026-04-25 22:03 10.71759 -71.22659 35847 ft 480 kts 268°
2026-04-25 22:04 10.71918 -71.29461 35845 ft 480 kts 268°
2026-04-25 22:04 10.72078 -71.36202 35843 ft 479 kts 268°
2026-04-25 22:05 10.72241 -71.42969 35843 ft 480 kts 268°
2026-04-25 22:05 10.72358 -71.49767 35843 ft 479 kts 267°
2026-04-25 22:06 10.72471 -71.56515 35834 ft 479 kts 268°
2026-04-25 22:06 10.72563 -71.63322 35838 ft 479 kts 268°
2026-04-25 22:07 10.72681 -71.68958 35834 ft 479 kts 268°
2026-04-25 22:07 10.72825 -71.76816 35833 ft 478 kts 268°
2026-04-25 22:08 10.72959 -71.83570 35828 ft 478 kts 268°
2026-04-25 22:08 10.73027 -71.90315 35830 ft 478 kts 267°
2026-04-25 22:09 10.73124 -71.97073 35828 ft 479 kts 268°
2026-04-25 22:09 10.73227 -72.03816 35836 ft 479 kts 268°
2026-04-25 22:10 10.73324 -72.10583 35840 ft 479 kts 268°
2026-04-25 22:10 10.73434 -72.17329 35847 ft 478 kts 268°
2026-04-25 22:11 10.73533 -72.24099 35850 ft 478 kts 268°
2026-04-25 22:11 10.73647 -72.30838 35866 ft 478 kts 268°
2026-04-25 22:12 10.73750 -72.37648 35894 ft 479 kts 268°
2026-04-25 22:12 10.73848 -72.43276 35923 ft 479 kts 268°
2026-04-25 22:13 10.73972 -72.51147 35982 ft 478 kts 268°
2026-04-25 22:13 10.74090 -72.57885 35984 ft 478 kts 268°
2026-04-25 22:14 10.74200 -72.64627 35989 ft 478 kts 268°
2026-04-25 22:14 10.74309 -72.71416 35994 ft 478 kts 268°
2026-04-25 22:15 10.74478 -72.78177 36010 ft 480 kts 268°
2026-04-25 22:16 10.74736 -72.88367 34759 ft 487 kts 269°
2026-04-25 22:16 10.74833 -72.91816 33811 ft 488 kts 269°
2026-04-25 22:16 10.74926 -72.95235 33043 ft 486 kts 269°
2026-04-25 22:16 10.75014 -72.98657 32249 ft 484 kts 269°
2026-04-25 22:17 10.75099 -73.02058 31416 ft 486 kts 270°
2026-04-25 22:17 10.75196 -73.05450 30558 ft 487 kts 270°
2026-04-25 22:17 10.75297 -73.08883 29675 ft 488 kts 271°
2026-04-25 22:17 10.75388 -73.12344 28765 ft 489 kts 271°
2026-04-25 22:18 10.75477 -73.15784 27867 ft 490 kts 271°
2026-04-25 22:18 10.75576 -73.19244 26869 ft 492 kts 272°
2026-04-25 22:18 10.75676 -73.22697 25826 ft 496 kts 272°
2026-04-25 22:18 10.75771 -73.26220 24735 ft 498 kts 272°
2026-04-25 22:19 10.75863 -73.29712 24080 ft 492 kts 272°
2026-04-25 22:19 10.75961 -73.33131 23330 ft 488 kts 272°
2026-04-25 22:19 10.76062 -73.36563 22667 ft 482 kts 272°
2026-04-25 22:19 10.76155 -73.39933 22465 ft 468 kts 272°
2026-04-25 22:20 10.76244 -73.43203 22234 ft 454 kts 272°
2026-04-25 22:20 10.76335 -73.46341 22195 ft 437 kts 273°
2026-04-25 22:20 10.76426 -73.49383 22198 ft 423 kts 272°
2026-04-25 22:20 10.76506 -73.52299 22177 ft 414 kts 273°
2026-04-25 22:21 10.76590 -73.55220 21857 ft 409 kts 273°
2026-04-25 22:21 10.76668 -73.58106 21542 ft 403 kts 272°
2026-04-25 22:21 10.76733 -73.60914 21266 ft 396 kts 272°
2026-04-25 22:21 10.76803 -73.63670 21046 ft 391 kts 272°
2026-04-25 22:22 10.76879 -73.66427 20869 ft 386 kts 272°
2026-04-25 22:22 10.76951 -73.69151 20670 ft 382 kts 272°
2026-04-25 22:22 10.77017 -73.71841 20416 ft 378 kts 272°
2026-04-25 22:22 10.77086 -73.74506 20113 ft 376 kts 272°
2026-04-25 22:23 10.77154 -73.77161 19715 ft 376 kts 272°
2026-04-25 22:23 10.77217 -73.79813 19297 ft 375 kts 271°
2026-04-25 22:23 10.77277 -73.82458 18890 ft 373 kts 272°
2026-04-25 22:23 10.77343 -73.85064 18476 ft 369 kts 271°
2026-04-25 22:24 10.77410 -73.87637 18084 ft 365 kts 271°
2026-04-25 22:24 10.77473 -73.90217 17695 ft 361 kts 271°
2026-04-25 22:24 10.77531 -73.92735 17326 ft 356 kts 271°
2026-04-25 22:24 10.77593 -73.95235 16964 ft 352 kts 271°
2026-04-25 22:25 10.77658 -73.97697 16597 ft 347 kts 271°
2026-04-25 22:25 10.77720 -74.00159 16235 ft 342 kts 271°
2026-04-25 22:25 10.77777 -74.02531 15895 ft 338 kts 271°
2026-04-25 22:25 10.77805 -74.03698 15725 ft 336 kts 271°
2026-04-25 22:26 10.77847 -74.05751 15488 ft 332 kts 272°
2026-04-25 22:26 10.77901 -74.08077 15192 ft 327 kts 272°
2026-04-25 22:26 10.77960 -74.10364 14959 ft 319 kts 272°
2026-04-25 22:26 10.78012 -74.12594 14740 ft 313 kts 272°
2026-04-25 22:27 10.78059 -74.14776 14505 ft 306 kts 271°
2026-04-25 22:27 10.78107 -74.16947 14247 ft 301 kts 271°
2026-04-25 22:27 10.78156 -74.19044 13977 ft 297 kts 271°
2026-04-25 22:27 10.78207 -74.21144 13709 ft 295 kts 271°
2026-04-25 22:28 10.78255 -74.23213 13441 ft 293 kts 270°
2026-04-25 22:28 10.78299 -74.25279 13158 ft 293 kts 271°
2026-04-25 22:28 10.78347 -74.27344 12899 ft 294 kts 271°
2026-04-25 22:28 10.78354 -74.29446 12625 ft 293 kts 266°
2026-04-25 22:29 10.78169 -74.31481 12360 ft 292 kts 261°
2026-04-25 22:29 10.77802 -74.33495 12033 ft 290 kts 258°
2026-04-25 22:29 10.77360 -74.35485 11760 ft 287 kts 257°
2026-04-25 22:30 10.76494 -74.39403 11150 ft 285 kts 258°
2026-04-25 22:30 10.76092 -74.41360 10886 ft 282 kts 258°
2026-04-25 22:30 10.75695 -74.43334 10632 ft 283 kts 258°
2026-04-25 22:30 10.75433 -74.44644 10382 ft 285 kts 258°
2026-04-25 22:31 10.74910 -74.47253 9921 ft 282 kts 258°
2026-04-25 22:31 10.74524 -74.49170 9659 ft 267 kts 258°
2026-04-25 22:31 10.74155 -74.50993 9425 ft 258 kts 258°
2026-04-25 22:31 10.73800 -74.52741 9200 ft 252 kts 258°
2026-04-25 22:32 10.73448 -74.54472 8995 ft 248 kts 258°
2026-04-25 22:32 10.73095 -74.56186 8781 ft 242 kts 258°
2026-04-25 22:32 10.72755 -74.57841 8564 ft 241 kts 258°
2026-04-25 22:32 10.72415 -74.59510 8216 ft 241 kts 258°
2026-04-25 22:33 10.72078 -74.61173 7664 ft 240 kts 258°
2026-04-25 22:33 10.71749 -74.62796 7193 ft 232 kts 257°
2026-04-25 22:33 10.71422 -74.64391 6646 ft 228 kts 257°
2026-04-25 22:33 10.71106 -74.65944 6091 ft 226 kts 257°
2026-04-25 22:34 10.70783 -74.67506 5535 ft 225 kts 257°
2026-04-25 22:34 10.70467 -74.69048 4985 ft 224 kts 258°
2026-04-25 22:34 10.70156 -74.70585 4450 ft 222 kts 258°
2026-04-25 22:34 10.69845 -74.72115 3995 ft 216 kts 259°
2026-04-25 22:35 10.69551 -74.73575 3572 ft 210 kts 259°
2026-04-25 22:35 10.69256 -74.75033 3129 ft 207 kts 259°
2026-04-25 22:35 10.68967 -74.76442 3067 ft 205 kts 260°
2026-04-25 22:35 10.68679 -74.77870 3050 ft 205 kts 260°
2026-04-25 22:36 10.68391 -74.79290 3054 ft 205 kts 260°
2026-04-25 22:36 10.68102 -74.80708 3049 ft 205 kts 259°
2026-04-25 22:36 10.67823 -74.82134 3028 ft 206 kts 263°
2026-04-25 22:36 10.67981 -74.83542 3066 ft 202 kts 294°
2026-04-25 22:37 10.68748 -74.84759 3055 ft 203 kts 310°
2026-04-25 22:37 10.69689 -74.85810 3020 ft 201 kts 315°
2026-04-25 22:37 10.70678 -74.86829 3006 ft 201 kts 315°
2026-04-25 22:37 10.71651 -74.87860 3021 ft 201 kts 313°
2026-04-25 22:38 10.72594 -74.88924 3014 ft 202 kts 311°
2026-04-25 22:38 10.73611 -74.89915 2956 ft 202 kts 331°
2026-04-25 22:38 10.74941 -74.90104 3074 ft 198 kts 14°
2026-04-25 22:38 10.76194 -74.89466 3006 ft 208 kts 34°
2026-04-25 22:39 10.77275 -74.88491 2723 ft 207 kts 43°
2026-04-25 22:39 10.78258 -74.87467 2439 ft 194 kts 43°
2026-04-25 22:39 10.79173 -74.86545 2217 ft 178 kts 41°
2026-04-25 22:39 10.80056 -74.85721 2011 ft 162 kts 39°
2026-04-25 22:40 10.80884 -74.84995 1805 ft 153 kts 38°
2026-04-25 22:40 10.81705 -74.84290 1642 ft 159 kts 37°
2026-04-25 22:40 10.82571 -74.83572 1418 ft 163 kts 37°
2026-04-25 22:40 10.83467 -74.82825 1209 ft 166 kts 37°
2026-04-25 22:41 10.84366 -74.82066 984 ft 166 kts 38°
2026-04-25 22:41 10.85235 -74.81296 744 ft 167 kts 41°
2026-04-25 22:41 10.86102 -74.80506 531 ft 166 kts 39°
2026-04-25 22:41 10.87009 -74.79745 335 ft 170 kts 39°
2026-04-25 22:42 10.87921 -74.78975 133 ft 170 kts 37°
2026-04-25 22:42 10.88844 -74.78187 93 ft 170 kts 38°
2026-04-25 22:42 10.89778 -74.77376 281 ft 178 kts 40°
2026-04-25 22:42 10.90692 -74.76520 675 ft 185 kts 42°
2026-04-25 22:43 10.91676 -74.75585 1058 ft 200 kts 41°
2026-04-25 22:43 10.92712 -74.74631 1713 ft 204 kts 40°
2026-04-25 22:43 10.93844 -74.73640 2134 ft 224 kts 39°
2026-04-25 22:43 10.95089 -74.72603 2667 ft 238 kts 37°
2026-04-25 22:44 10.96435 -74.71578 3042 ft 246 kts 31°
2026-04-25 22:44 10.98055 -74.71094 2643 ft 244 kts 357°
2026-04-25 22:44 10.99668 -74.71523 2348 ft 239 kts 327°
2026-04-25 22:44 11.00855 -74.72673 2054 ft 236 kts 306°
2026-04-25 22:45 11.01693 -74.74102 1994 ft 236 kts 299°
2026-04-25 22:45 11.02530 -74.75606 1922 ft 242 kts 306°
2026-04-25 22:45 11.03545 -74.76943 1917 ft 241 kts 309°
2026-04-25 22:45 11.04199 -74.78507 1952 ft 240 kts 276°
2026-04-25 22:46 11.03992 -74.80198 1958 ft 243 kts 251°
2026-04-25 22:46 11.03231 -74.81741 1922 ft 247 kts 239°
2026-04-25 22:46 11.02218 -74.83183 1907 ft 250 kts 233°
2026-04-25 22:46 11.01101 -74.84548 1899 ft 250 kts 231°
2026-04-25 22:47 10.99939 -74.85860 1895 ft 250 kts 229°
2026-04-25 22:47 10.98751 -74.87161 1900 ft 250 kts 228°
2026-04-25 22:47 10.97552 -74.88463 1901 ft 250 kts 228°
2026-04-25 22:47 10.96362 -74.89751 1898 ft 250 kts 228°
2026-04-25 22:48 10.95148 -74.91059 1891 ft 251 kts 228°
2026-04-25 22:48 10.93945 -74.92361 1887 ft 251 kts 229°
2026-04-25 22:48 10.92751 -74.93651 1902 ft 251 kts 229°
2026-04-25 22:48 10.91552 -74.94943 1925 ft 250 kts 229°
2026-04-25 22:49 10.90348 -74.96245 1884 ft 251 kts 229°
2026-04-25 22:49 10.88925 -74.97244 1888 ft 249 kts 200°
2026-04-25 22:49 10.87233 -74.97397 1912 ft 246 kts 168°
2026-04-25 22:49 10.85759 -74.96652 2146 ft 232 kts 134°
2026-04-25 22:50 10.84788 -74.95351 2408 ft 233 kts 125°
2026-04-25 22:50 10.83808 -74.94039 2628 ft 233 kts 127°
2026-04-25 22:50 10.82793 -74.92754 2862 ft 233 kts 128°
2026-04-25 22:50 10.81772 -74.91485 3013 ft 235 kts 128°
2026-04-25 22:51 10.80735 -74.90197 2970 ft 232 kts 128°
2026-04-25 22:51 10.79702 -74.88911 2972 ft 232 kts 128°
2026-04-25 22:51 10.78692 -74.87640 2985 ft 232 kts 128°
2026-04-25 22:51 10.77667 -74.86344 3002 ft 232 kts 128°
2026-04-25 22:52 10.76623 -74.85107 2954 ft 233 kts 139°
2026-04-25 22:52 10.75262 -74.84208 3018 ft 232 kts 155°
2026-04-25 22:52 10.73696 -74.83865 3031 ft 228 kts 186°
2026-04-25 22:52 10.72657 -74.84069 3108 ft 230 kts 198°
2026-04-25 22:53 10.70709 -74.84955 3019 ft 230 kts 212°
2026-04-25 22:53 10.69349 -74.85834 2999 ft 229 kts 216°
2026-04-25 22:53 10.68063 -74.86776 2996 ft 229 kts 219°
2026-04-25 22:53 10.66788 -74.87763 2996 ft 228 kts 220°
2026-04-25 22:54 10.65694 -74.88911 2952 ft 224 kts 245°
2026-04-25 22:54 10.65386 -74.90404 3072 ft 220 kts 276°
2026-04-25 22:54 10.65931 -74.91804 3060 ft 209 kts 310°
2026-04-25 22:54 10.67079 -74.92633 3062 ft 200 kts 336°
2026-04-25 22:55 10.68415 -74.92978 3026 ft 199 kts 353°
2026-04-25 22:55 10.69811 -74.92991 3016 ft 200 kts
2026-04-25 22:55 10.71167 -74.92690 3012 ft 202 kts 18°
2026-04-25 22:55 10.72446 -74.92081 3017 ft 203 kts 29°
2026-04-25 22:56 10.73625 -74.91262 3016 ft 204 kts 36°
2026-04-25 22:56 10.74732 -74.90340 3005 ft 204 kts 39°
2026-04-25 22:56 10.75772 -74.89414 2969 ft 193 kts 40°
2026-04-25 22:56 10.76756 -74.88529 2780 ft 185 kts 39°
2026-04-25 22:57 10.77711 -74.87691 2558 ft 177 kts 38°
2026-04-25 22:57 10.78622 -74.86913 2305 ft 163 kts 38°
2026-04-25 22:57 10.79488 -74.86185 2156 ft 162 kts 38°
2026-04-25 22:57 10.80371 -74.85435 1947 ft 167 kts 37°
2026-04-25 22:58 10.81268 -74.84686 1704 ft 163 kts 37°
2026-04-25 22:58 10.82125 -74.83956 1529 ft 161 kts 38°
2026-04-25 22:58 10.82999 -74.83205 1324 ft 167 kts 38°
2026-04-25 22:58 10.83885 -74.82449 1091 ft 164 kts 38°
2026-04-25 22:59 10.84747 -74.81715 886 ft 159 kts 38°
2026-04-25 22:59 10.85600 -74.80988 700 ft 158 kts 38°
2026-04-25 22:59 10.86441 -74.80267 499 ft 159 kts 39°
2026-04-25 22:59 10.87282 -74.79529 269 ft 161 kts 39°
2026-04-25 23:00 10.88139 -74.78793 117 ft 160 kts 39°
2026-04-25 23:00 10.88967 -74.78084 89 ft 137 kts 39°
2026-04-25 23:00 10.89485 -74.77640 79 ft 64 kts 39°
2026-04-25 23:00 10.89792 -74.77380 73 ft 45 kts 40°
2026-04-25 23:01 10.89941 -74.77250 70 ft 17 kts 42°
2026-04-25 23:01 10.89931 -74.77142 70 ft 18 kts 139°
2026-04-25 23:01 10.89811 -74.77154 70 ft 19 kts 207°
2026-04-25 23:01 10.89719 -74.77205 72 ft 14 kts 196°
2026-04-25 23:02 10.89616 -74.77193 72 ft 14 kts 188°
2026-04-25 23:02 10.89564 -74.77228 73 ft 5 kts 220°
2026-04-25 23:02 10.89532 -74.77255 73 ft 6 kts 220°
2026-04-25 23:02 10.89492 -74.77273 74 ft 6 kts 169°
2026-04-25 23:03 10.89454 -74.77240 74 ft 6 kts 131°
2026-04-25 23:03 10.89444 -74.77228 73 ft 0 kts 131°
2026-04-25 23:03 10.89442 -74.77226 73 ft 0 kts 129°